Vertical_Velocity
-8 0 -1 2 3 2 0 0 -3 -2 1 -0 -2 -1 0 -3 -3 1 -0 -1 -2 -2
4 -1 1 5 -1 -1 -1 -3 -1 -2 -2 -2 -1 1 -0 -5 -2 -2 1 -0 -2 1
4 -1 2 -3 1 -1 -1 -1 -2 -2 -1 2 1 -2 -8 -2 3 1 -0 -1 -0 -3
0 -3 2 -0 1 -1 -3 -3 0 0 -1 -2 -2 -7 -3 1 -1 0 -2 -1 -3 -1
-4 2 -1 -3 0 -0 -2 -2 -2 -0 -1 -1 -5 -3 1 -1 -1 -2 -2 -2 0 -2
1 -3 1 -0 -3 -0 -1 -1 1 1 0 -4 -5 -3 -2 -1 0 -3 -2 0 -1 -2
3 4 -1 -1 -1 -1 -0 -0 -1 -2 -4 -5 -3 1 0 -0 -3 -2 -1 -1 -2 -2
4 1 -1 0 0 -2 -0 -2 -3 -3 -2 -3 0 -0 -1 -1 -3 -1 0 1 -1 -1
2 -1 -0 -1 -2 -2 -3 -3 -5 -2 -3 -0 1 -3 0 -2 -2 -1 -3 -5 -1 -1
0 -0 -1 -2 -2 -3 -2 -5 -2 -3 1 1 -7 -2 -3 -1 -1 0 0 -3 -5 -7
1 -1 -2 -3 -3 -1 -3 -3 1 -1 -2 1 -2 1 -1 1 1 -1 -6 -5 -4 -2
1 -2 -1 -2 -1 -2 -5 -2 -1 -0 -1 -1 -1 0 1 1 -2 -5 -6 -4 -1 2
-3 -2 -3 -4 0 -3 -1 1 -1 -0 -1 1 -2 2 1 -3 -5 -4 -5 2 1 -1
-6 -3 -5 -3 -2 1 1 0 -2 -2 -1 1 -0 0 -2 -4 -4 -1 -2 -2 -4 -8
Height
1488 1494 1498 1503 1506 1510 1513 1515 1515 1517 1518 1518 1517 1516 1515 1515 1515 1515 1514 1512 1511 1510
1486 1491 1497 1500 1503 1506 1509 1510 1511 1512 1514 1514 1514 1513 1512 1512 1513 1512 1511 1509 1507 1505
1483 1488 1492 1494 1499 1500 1502 1505 1507 1509 1509 1510 1509 1509 1509 1510 1510 1508 1506 1505 1503 1502
1478 1482 1486 1491 1494 1497 1499 1502 1504 1505 1505 1505 1505 1506 1506 1506 1505 1503 1502 1502 1501 1499
1474 1477 1482 1487 1490 1493 1495 1498 1500 1501 1501 1501 1501 1502 1502 1501 1501 1500 1499 1499 1497 1496
1468 1473 1478 1482 1486 1489 1492 1494 1496 1496 1496 1497 1498 1499 1499 1498 1497 1497 1496 1495 1493 1491
1465 1469 1473 1478 1482 1485 1488 1490 1491 1492 1493 1494 1496 1496 1495 1495 1494 1493 1492 1489 1487 1485
1461 1464 1469 1474 1478 1481 1483 1485 1487 1488 1490 1491 1492 1493 1492 1491 1490 1488 1486 1484 1482 1479
1454 1459 1465 1470 1473 1476 1478 1481 1483 1485 1487 1489 1490 1488 1488 1487 1486 1483 1480 1478 1477 1474
1449 1455 1461 1465 1469 1471 1474 1476 1479 1481 1484 1486 1484 1483 1484 1482 1481 1478 1476 1473 1470 1468
1444 1451 1456 1460 1464 1467 1471 1474 1477 1478 1478 1479 1480 1480 1479 1478 1477 1475 1473 1469 1467 1464
1440 1446 1452 1456 1460 1464 1468 1470 1472 1472 1474 1475 1475 1476 1475 1474 1473 1471 1470 1466 1463 1461
1436 1443 1448 1453 1457 1460 1462 1465 1467 1469 1470 1471 1472 1473 1472 1471 1469 1467 1465 1461 1458 1455
1434 1440 1445 1449 1452 1455 1458 1461 1463 1465 1467 1469 1469 1469 1470 1469 1467 1463 1460 1456 1452 1449